Regional Weather Roundup
Issued by NWS Cleveland, OH

Home | Current Version | Previous Version | Graphics & Text | Print | Product List | Glossary On
Versions: 1 2 3 4 5 6 7 8 9 10 11 12 13 14 15 16 17 18 19 20 21 22 23 24 25 26 27 28 29 30 31 32 33 34 35 36 37 38 39 40 41 42 43 44 45 46 47 48 49 50
000
ASUS41 KCLE 211212
RWRCLE
OHIO REGIONAL WEATHER ROUNDUP
NATIONAL WEATHER SERVICE WILMINGTON, OH
700 AM EST SAT JAN 21 2017

NOTE: "FAIR" INDICATES FEW OR NO CLOUDS BELOW 12,000 FEET WITH NO
SIGNIFICANT WEATHER AND/OR OBSTRUCTIONS TO VISIBILITY.

OHZ001>008-015>018-024>027-034-035-043-044-211300-
   NORTHWEST OHIO

CITY           SKY/WX    TMP DP  RH WIND       PRES   REMARKS
DEFIANCE       FAIR      48  45  89 S6        29.67S
FINDLAY        FAIR      48  44  86 SE8       29.69R
TOLEDO EXPRESS CLOUDY    44  44 100 CALM      29.69S
TOLEDO EXEC    MOCLDY    47  46  97 S7        29.70S
LIMA           FAIR      47  46  97 SE10      29.68F
$$

OHZ009>014-019>023-028>033-038-089-211300-
   NORTHEAST OHIO

CITY           SKY/WX    TMP DP  RH WIND       PRES   REMARKS
CLE-HOPKINS    MOCLDY    49  44  83 S9        29.76F
CLE-LAKEFRONT  FAIR      50  46  86 SE15      29.73F
CUY CO. ARPT   PTCLDY    50  48  93 S14       29.75
LORAIN-ELYRIA  MOCLDY    47  43  86 S10       29.74F
ASHTABULA      CLOUDY    46  46 100 SE9       29.78F
AKRON-CANTON   MOCLDY    46  43  89 SE7       29.76F FOG
WOOSTER        MOCLDY    40  39  97 SE3       29.76S FOG
MANSFIELD      FAIR      48  46  93 SE10      29.74S
YOUNGSTOWN     MOCLDY    47  46  97 SE6       29.78F
$$

OHZ042-051>053-060>062-070>072-077>081-211300-
  SOUTHWEST OHIO

CITY           SKY/WX    TMP DP  RH WIND       PRES   REMARKS
CINC-COVINGTON FAIR      50  48  93 S9        29.72R
CINC-LUNKEN    FAIR      41  41 100 CALM      29.74R
HAMILTON       FAIR      43  43 100 E3        29.73S
DAYTON         MOCLDY    45  44  97 SE8       29.71S
WRIGHT-PAT AFB FAIR      44  44 100 S3        29.71S
DAYTON GENERAL NOT AVBL
WILMINGTON     FAIR      48  46  93 S6        29.73R
$$

OHZ036-037-039>041-045>050-054>059-063>069-073>076-082>088-211300-
  CENTRAL AND SOUTHEAST OHIO

CITY           SKY/WX    TMP DP  RH WIND       PRES   REMARKS
COLUMBUS       MOCLDY    49  45  86 E3        29.73S
OSU AIRPORT    MOCLDY    46  46 100 CALM      29.73S FOG
BOLTON FIELD   FAIR      46  45  99 CALM      29.74R
RICKENBACK AFB   N/A     44  45 100 CALM      29.74R
NEWARK         FOG       37  35  92 CALM      29.75R VSB 1/2
MARION         FAIR      47  44  90 S9        29.73S
LANCASTER      MOCLDY    42  40  92 S5        29.75S FOG
ZANESVILLE     FAIR      43  42  97 CALM      29.76F FOG
NEW PHILLY     FOG       38  38 100 E5        29.77F VSB 3/4
$$



USA.gov is the U.S. government's official web portal to all federal, state and local government web resources and services.